When you browse on this site, cookies collect data to enhance your experience and personalize the content and advertising you see.
Visit our Privacy Policy to learn more. By continuing to use the site, you agree to this use of cookies and data.
  • En España
  • Lista de países
  • Para 7 días
  • Temperatura del agua
  • El tiempo en el mapa
  • Informadores
  • user-avatar
    Iniciar sesión

    Tiempo cada hora Taldy Kurgan

    Hoy, 14 Noviembre, Jueves

    Tiempo Temperatura Precipitaciones Viento Presión Humedad
    00:00 +2°C° 0 mm 1 mps 716 mmHg 51%
    01:00 +2°C° 0 mm 1 mps 716 mmHg 50%
    02:00 +2°C° 0 mm 1 mps 716 mmHg 48%
    03:00 +2°C° 0 mm 1 mps 716 mmHg 48%
    04:00 +2°C° 0 mm 1 mps 716 mmHg 48%
    05:00 +2°C° 0 mm 1 mps 716 mmHg 47%
    06:00 +2°C° 0 mm 2 mps 716 mmHg 45%
    07:00 +3°C° 0 mm 2 mps 716 mmHg 43%
    08:00 +4°C° 0 mm 2 mps 717 mmHg 40%
    09:00 +5°C° 0 mm 3 mps 717 mmHg 39%
    10:00 +7°C° 0 mm 5 mps 717 mmHg 37%
    11:00 +9°C° 0 mm 6 mps 717 mmHg 35%
    12:00 +10°C° 0 mm 6 mps 717 mmHg 35%
    13:00 +10°C° 0 mm 6 mps 717 mmHg 34%
    14:00 +10°C° 0 mm 5 mps 717 mmHg 34%
    15:00 +9°C° 0 mm 5 mps 717 mmHg 37%
    16:00 +7°C° 0 mm 4 mps 717 mmHg 41%
    17:00 +5°C° 0 mm 3 mps 717 mmHg 44%
    18:00 +5°C° 0 mm 3 mps 717 mmHg 45%
    19:00 +4°C° 0 mm 3 mps 717 mmHg 46%
    20:00 +4°C° 0 mm 3 mps 717 mmHg 46%
    21:00 +3°C° 0 mm 3 mps 717 mmHg 47%
    22:00 +3°C° 0 mm 3 mps 717 mmHg 47%
    23:00 +3°C° 0 mm 3 mps 717 mmHg 47%

    Mañana, 15 Noviembre, Viernes

    Tiempo Temperatura Precipitaciones Viento Presión Humedad
    00:00 +3°C° 0 mm 3 mps 717 mmHg 47%
    01:00 +3°C° 0 mm 3 mps 716 mmHg 47%
    02:00 +4°C° 0 mm 2 mps 716 mmHg 47%
    03:00 +4°C° 0 mm 2 mps 716 mmHg 47%
    04:00 +4°C° 0 mm 2 mps 716 mmHg 47%
    05:00 +4°C° 0 mm 2 mps 716 mmHg 47%
    06:00 +4°C° 0 mm 2 mps 717 mmHg 46%
    07:00 +5°C° 0 mm 2 mps 717 mmHg 46%
    08:00 +5°C° 0 mm 2 mps 717 mmHg 46%
    09:00 +4°C° 0 mm 3 mps 718 mmHg 45%
    10:00 +5°C° 0 mm 4 mps 718 mmHg 45%
    11:00 +5°C° 0 mm 5 mps 718 mmHg 44%
    12:00 +5°C° 0 mm 5 mps 719 mmHg 44%
    13:00 +3°C° 0 mm 5 mps 719 mmHg 44%
    14:00 +4°C° 0 mm 4 mps 720 mmHg 45%
    15:00 +3°C° 0 mm 4 mps 721 mmHg 55%
    16:00 0°C° 0 mm 4 mps 722 mmHg 66%
    17:00 -2°C° 0 mm 4 mps 722 mmHg 76%
    18:00 -4°C° 0.1 mm 5 mps 723 mmHg 79%
    19:00 -5°C° 0.1 mm 5 mps 724 mmHg 81%
    20:00 -6°C° 0.1 mm 6 mps 724 mmHg 83%
    21:00 -7°C° 0 mm 5 mps 725 mmHg 81%
    22:00 -8°C° 0 mm 5 mps 725 mmHg 79%
    23:00 -8°C° 0 mm 4 mps 726 mmHg 77%

    Pasado mañana, 16 Noviembre, Sábado

    Tiempo Temperatura Precipitaciones Viento Presión Humedad
    00:00 -9°C° 0 mm 4 mps 726 mmHg 76%
    01:00 -9°C° 0 mm 4 mps 726 mmHg 74%
    02:00 -10°C° 0 mm 4 mps 726 mmHg 73%
    03:00 -10°C° 0 mm 4 mps 726 mmHg 72%
    04:00 -11°C° 0 mm 4 mps 727 mmHg 71%
    05:00 -10°C° 0 mm 3 mps 727 mmHg 70%
    06:00 -10°C° 0 mm 3 mps 727 mmHg 67%
    07:00 -10°C° 0 mm 3 mps 727 mmHg 65%
    08:00 -10°C° 0 mm 3 mps 727 mmHg 63%
    09:00 -8°C° 0 mm 3 mps 728 mmHg 57%
    10:00 -7°C° 0 mm 3 mps 728 mmHg 52%
    11:00 -5°C° 0 mm 3 mps 728 mmHg 47%
    12:00 -5°C° 0 mm 3 mps 728 mmHg 46%
    13:00 -4°C° 0 mm 3 mps 728 mmHg 45%
    14:00 -4°C° 0 mm 3 mps 727 mmHg 45%
    15:00 -5°C° 0 mm 3 mps 727 mmHg 50%
    16:00 -6°C° 0 mm 3 mps 727 mmHg 56%
    17:00 -6°C° 0 mm 2 mps 727 mmHg 61%
    18:00 -6°C° 0 mm 2 mps 727 mmHg 60%
    19:00 -6°C° 0 mm 2 mps 727 mmHg 58%
    20:00 -6°C° 0 mm 2 mps 726 mmHg 56%
    21:00 -5°C° 0 mm 2 mps 726 mmHg 55%
    22:00 -5°C° 0 mm 2 mps 726 mmHg 53%
    23:00 -3°C° 0 mm 1 mps 726 mmHg 52%

    17 Noviembre, Domingo

    Tiempo Temperatura Precipitaciones Viento Presión Humedad
    00:00 -3°C° 0 mm 1 mps 726 mmHg 50%
    01:00 -3°C° 0 mm 1 mps 726 mmHg 49%
    02:00 -3°C° 0 mm 1 mps 725 mmHg 48%
    03:00 -3°C° 0 mm 1 mps 725 mmHg 47%
    04:00 -3°C° 0 mm 1 mps 725 mmHg 46%
    05:00 -3°C° 0 mm 1 mps 725 mmHg 45%
    06:00 -2°C° 0 mm 1 mps 725 mmHg 43%
    07:00 -2°C° 0 mm 1 mps 726 mmHg 41%
    08:00 -2°C° 0 mm 0 mps 726 mmHg 39%
    09:00 +1°C° 0 mm 1 mps 726 mmHg 36%
    10:00 +2°C° 0 mm 1 mps 726 mmHg 33%
    11:00 +4°C° 0 mm 1 mps 726 mmHg 30%
    12:00 +4°C° 0 mm 1 mps 725 mmHg 30%
    13:00 +5°C° 0 mm 1 mps 725 mmHg 30%
    14:00 +5°C° 0 mm 1 mps 725 mmHg 31%
    15:00 +3°C° 0 mm 1 mps 725 mmHg 35%
    16:00 +1°C° 0 mm 1 mps 724 mmHg 40%
    17:00 0°C° 0 mm 1 mps 724 mmHg 45%
    18:00 0°C° 0 mm 1 mps 724 mmHg 45%
    19:00 -1°C° 0 mm 1 mps 724 mmHg 45%
    20:00 -2°C° 0 mm 0 mps 723 mmHg 44%
    21:00 -1°C° 0 mm 1 mps 723 mmHg 44%
    22:00 0°C° 0 mm 1 mps 723 mmHg 44%
    23:00 0°C° 0 mm 1 mps 723 mmHg 43%

    18 Noviembre, Lunes

    Tiempo Temperatura Precipitaciones Viento Presión Humedad
    00:00 0°C° 0 mm 1 mps 722 mmHg 43%
    01:00 0°C° 0 mm 1 mps 722 mmHg 42%
    02:00 0°C° 0 mm 1 mps 722 mmHg 41%
    03:00 0°C° 0 mm 1 mps 722 mmHg 41%
    04:00 0°C° 0 mm 1 mps 721 mmHg 40%
    05:00 0°C° 0 mm 1 mps 721 mmHg 40%
    06:00 +1°C° 0 mm 1 mps 721 mmHg 38%
    07:00 +1°C° 0 mm 1 mps 721 mmHg 36%
    08:00 +2°C° 0 mm 1 mps 721 mmHg 34%
    09:00 +4°C° 0 mm 1 mps 721 mmHg 32%
    10:00 +5°C° 0 mm 1 mps 722 mmHg 29%
    11:00 +7°C° 0 mm 1 mps 722 mmHg 27%
    12:00 +7°C° 0 mm 1 mps 721 mmHg 28%
    13:00 +8°C° 0 mm 1 mps 721 mmHg 29%
    14:00 +8°C° 0 mm 1 mps 721 mmHg 31%
    15:00 +6°C° 0 mm 2 mps 721 mmHg 35%
    16:00 +4°C° 0 mm 2 mps 720 mmHg 38%
    17:00 +3°C° 0 mm 2 mps 720 mmHg 42%
    18:00 +3°C° 0 mm 2 mps 720 mmHg 43%
    19:00 +2°C° 0 mm 2 mps 720 mmHg 45%
    20:00 +2°C° 0 mm 2 mps 720 mmHg 46%
    21:00 +2°C° 0 mm 2 mps 719 mmHg 45%
    22:00 +2°C° 0 mm 2 mps 719 mmHg 45%
    23:00 +2°C° 0 mm 2 mps 719 mmHg 44%

    19 Noviembre, Martes

    Tiempo Temperatura Precipitaciones Viento Presión Humedad
    00:00 +2°C° 0 mm 2 mps 719 mmHg 44%
    01:00 +2°C° 0 mm 2 mps 718 mmHg 44%
    02:00 +2°C° 0 mm 2 mps 718 mmHg 44%
    03:00 +1°C° 0 mm 3 mps 718 mmHg 45%
    04:00 +1°C° 0 mm 3 mps 718 mmHg 45%
    05:00 +1°C° 0 mm 3 mps 717 mmHg 46%
    06:00 +2°C° 0 mm 3 mps 717 mmHg 45%
    07:00 +2°C° 0 mm 3 mps 717 mmHg 44%
    08:00 +3°C° 0 mm 3 mps 718 mmHg 43%
    09:00 +5°C° 0 mm 4 mps 717 mmHg 39%
    10:00 +7°C° 0 mm 5 mps 717 mmHg 36%
    11:00 +8°C° 0 mm 6 mps 717 mmHg 32%
    12:00 +8°C° 0 mm 5 mps 717 mmHg 33%
    13:00 +8°C° 0 mm 5 mps 717 mmHg 33%
    14:00 +8°C° 0 mm 4 mps 716 mmHg 34%
    15:00 +7°C° 0 mm 4 mps 716 mmHg 37%
    16:00 +7°C° 0 mm 3 mps 716 mmHg 41%
    17:00 +6°C° 0 mm 2 mps 716 mmHg 44%
    18:00 +6°C° 0 mm 2 mps 715 mmHg 44%
    19:00 +6°C° 0 mm 2 mps 715 mmHg 44%
    20:00 +5°C° 0 mm 3 mps 715 mmHg 44%
    21:00 +5°C° 0 mm 3 mps 715 mmHg 44%
    22:00 +4°C° 0 mm 3 mps 714 mmHg 43%
    23:00 +4°C° 0 mm 3 mps 714 mmHg 43%
    Mostrar más